When you browse on this site, cookies collect data to enhance your experience and personalize the content and advertising you see.
Visit our Privacy Policy to learn more. By continuing to use the site, you agree to this use of cookies and data.
  • en France
  • Liste des pays
  • À 7 jours
  • Température de l'eau
  • Carte satellitaire
  • Carte météo
  • Widgets météo
  • user-avatar
    Se connecter

    Météo par heure à Wien

    Ce jour, 19 Février, Mardi

    Heure Température Précipitation Vent Pression Humidité
    00:00 +5°C° 0 mm 1 m/s 746 mmHg 80%
    01:00 +5°C° 0 mm 1 m/s 746 mmHg 81%
    02:00 +4°C° 0 mm 1 m/s 745 mmHg 82%
    03:00 +4°C° 0 mm 1 m/s 745 mmHg 83%
    04:00 +3°C° 0 mm 0 m/s 745 mmHg 84%
    05:00 +2°C° 0 mm 0 m/s 745 mmHg 83%
    06:00 +2°C° 0 mm 0 m/s 745 mmHg 83%
    07:00 +2°C° 0 mm 0 m/s 745 mmHg 82%
    08:00 +5°C° 0 mm 1 m/s 746 mmHg 74%
    09:00 +6°C° 0 mm 1 m/s 746 mmHg 67%
    10:00 +8°C° 0 mm 1 m/s 746 mmHg 59%
    11:00 +9°C° 0 mm 2 m/s 746 mmHg 53%
    12:00 +10°C° 0 mm 2 m/s 745 mmHg 47%
    13:00 +12°C° 0 mm 3 m/s 745 mmHg 42%
    14:00 +12°C° 0 mm 3 m/s 745 mmHg 44%
    15:00 +12°C° 0 mm 3 m/s 745 mmHg 46%
    16:00 +12°C° 0 mm 3 m/s 745 mmHg 48%
    17:00 +11°C° 0 mm 3 m/s 745 mmHg 53%
    18:00 +9°C° 0 mm 3 m/s 745 mmHg 59%
    19:00 +8°C° 0 mm 3 m/s 746 mmHg 64%
    20:00 +8°C° 0 mm 3 m/s 746 mmHg 66%
    21:00 +8°C° 0 mm 3 m/s 746 mmHg 67%
    22:00 +8°C° 0 mm 3 m/s 746 mmHg 69%
    23:00 +8°C° 0 mm 3 m/s 746 mmHg 72%

    Demain, 20 Février, Mercredi

    Heure Température Précipitation Vent Pression Humidité
    00:00 +7°C° 0 mm 4 m/s 747 mmHg 74%
    01:00 +7°C° 0 mm 4 m/s 747 mmHg 77%
    02:00 +6°C° 0 mm 4 m/s 747 mmHg 79%
    03:00 +6°C° 0 mm 4 m/s 747 mmHg 80%
    04:00 +5°C° 0 mm 4 m/s 747 mmHg 81%
    05:00 +5°C° 0 mm 3 m/s 747 mmHg 82%
    06:00 +4°C° 0 mm 3 m/s 747 mmHg 83%
    07:00 +4°C° 0 mm 3 m/s 748 mmHg 84%
    08:00 +5°C° 0 mm 3 m/s 748 mmHg 77%
    09:00 +6°C° 0 mm 4 m/s 748 mmHg 69%
    10:00 +7°C° 0 mm 4 m/s 749 mmHg 62%
    11:00 +8°C° 0 mm 4 m/s 749 mmHg 57%
    12:00 +10°C° 0 mm 4 m/s 749 mmHg 53%
    13:00 +11°C° 0 mm 4 m/s 749 mmHg 48%
    14:00 +11°C° 0 mm 4 m/s 749 mmHg 49%
    15:00 +11°C° 0 mm 4 m/s 749 mmHg 50%
    16:00 +11°C° 0 mm 3 m/s 748 mmHg 50%
    17:00 +10°C° 0 mm 3 m/s 749 mmHg 57%
    18:00 +9°C° 0 mm 3 m/s 749 mmHg 64%
    19:00 +7°C° 0 mm 2 m/s 750 mmHg 70%
    20:00 +7°C° 0 mm 2 m/s 750 mmHg 73%
    21:00 +5°C° 0 mm 3 m/s 750 mmHg 77%
    22:00 +5°C° 0 mm 3 m/s 751 mmHg 80%
    23:00 +5°C° 0 mm 3 m/s 751 mmHg 81%

    Après-demain, 21 Février, Jeudi

    Heure Température Précipitation Vent Pression Humidité
    00:00 +5°C° 0 mm 2 m/s 751 mmHg 81%
    01:00 +5°C° 0 mm 2 m/s 751 mmHg 82%
    02:00 +5°C° 0 mm 2 m/s 751 mmHg 83%
    03:00 +5°C° 0 mm 2 m/s 751 mmHg 84%
    04:00 +4°C° 0 mm 2 m/s 751 mmHg 84%
    05:00 +4°C° 0 mm 2 m/s 751 mmHg 85%
    06:00 +4°C° 0 mm 2 m/s 751 mmHg 86%
    07:00 +4°C° 0 mm 2 m/s 751 mmHg 86%
    08:00 +6°C° 0 mm 2 m/s 751 mmHg 79%
    09:00 +7°C° 0 mm 3 m/s 751 mmHg 73%
    10:00 +8°C° 0 mm 4 m/s 751 mmHg 66%
    11:00 +10°C° 0 mm 4 m/s 751 mmHg 61%
    12:00 +11°C° 0 mm 4 m/s 751 mmHg 57%
    13:00 +12°C° 0 mm 5 m/s 751 mmHg 53%
    14:00 +12°C° 0 mm 5 m/s 751 mmHg 54%
    15:00 +12°C° 0 mm 5 m/s 750 mmHg 55%
    16:00 +12°C° 0 mm 5 m/s 750 mmHg 56%
    17:00 +10°C° 0.2 mm 5 m/s 750 mmHg 60%
    18:00 +9°C° 0.2 mm 5 m/s 750 mmHg 64%
    19:00 +9°C° 0.2 mm 5 m/s 750 mmHg 68%
    20:00 +8°C° 0 mm 5 m/s 751 mmHg 68%
    21:00 +8°C° 0 mm 5 m/s 751 mmHg 69%
    22:00 +8°C° 0 mm 6 m/s 751 mmHg 69%
    23:00 +8°C° 0.1 mm 6 m/s 751 mmHg 70%

    22 Février, Vendredi

    Heure Température Précipitation Vent Pression Humidité
    00:00 +8°C° 0.1 mm 7 m/s 751 mmHg 70%
    01:00 +8°C° 0.1 mm 7 m/s 751 mmHg 71%
    02:00 +8°C° 0 mm 7 m/s 751 mmHg 72%
    03:00 +7°C° 0 mm 8 m/s 750 mmHg 73%
    04:00 +7°C° 0 mm 8 m/s 750 mmHg 74%
    05:00 +7°C° 0.1 mm 8 m/s 750 mmHg 74%
    06:00 +7°C° 0.1 mm 8 m/s 750 mmHg 73%
    07:00 +7°C° 0.1 mm 8 m/s 750 mmHg 73%
    08:00 +7°C° 0.2 mm 8 m/s 751 mmHg 71%
    09:00 +7°C° 0.2 mm 8 m/s 751 mmHg 68%
    10:00 +7°C° 0.2 mm 8 m/s 751 mmHg 66%
    11:00 +7°C° 0.3 mm 8 m/s 752 mmHg 67%
    12:00 +8°C° 0.3 mm 7 m/s 752 mmHg 68%
    13:00 +6°C° 0.3 mm 7 m/s 752 mmHg 69%
    14:00 +6°C° 0.1 mm 7 m/s 753 mmHg 65%
    15:00 +6°C° 0.1 mm 7 m/s 753 mmHg 61%
    16:00 +7°C° 0.1 mm 6 m/s 754 mmHg 57%
    17:00 +5°C° 0 mm 6 m/s 754 mmHg 59%
    18:00 +3°C° 0 mm 5 m/s 755 mmHg 61%
    19:00 +2°C° 0 mm 5 m/s 756 mmHg 63%
    20:00 +1°C° 0 mm 4 m/s 757 mmHg 64%
    21:00 0°C° 0 mm 4 m/s 757 mmHg 64%
    22:00 -1°C° 0 mm 4 m/s 758 mmHg 65%
    23:00 0°C° 0 mm 3 m/s 758 mmHg 65%

    23 Février, Samedi

    Heure Température Précipitation Vent Pression Humidité
    00:00 -1°C° 0 mm 3 m/s 759 mmHg 65%
    01:00 -1°C° 0 mm 3 m/s 759 mmHg 65%
    02:00 -1°C° 0 mm 3 m/s 759 mmHg 65%
    03:00 -2°C° 0 mm 2 m/s 759 mmHg 65%
    04:00 -2°C° 0 mm 2 m/s 758 mmHg 65%
    05:00 -2°C° 0 mm 2 m/s 758 mmHg 66%
    06:00 -2°C° 0 mm 2 m/s 759 mmHg 67%
    07:00 -2°C° 0 mm 2 m/s 759 mmHg 68%
    08:00 -1°C° 0 mm 2 m/s 759 mmHg 61%
    09:00 0°C° 0 mm 3 m/s 759 mmHg 54%
    10:00 +1°C° 0 mm 3 m/s 759 mmHg 47%
    11:00 +2°C° 0 mm 3 m/s 758 mmHg 42%
    12:00 +3°C° 0 mm 3 m/s 758 mmHg 38%
    13:00 +4°C° 0 mm 3 m/s 757 mmHg 34%
    14:00 +4°C° 0 mm 3 m/s 757 mmHg 33%
    15:00 +4°C° 0 mm 3 m/s 757 mmHg 33%
    16:00 +4°C° 0 mm 3 m/s 757 mmHg 32%
    17:00 +4°C° 0 mm 2 m/s 757 mmHg 35%
    18:00 +3°C° 0 mm 2 m/s 757 mmHg 38%
    19:00 +3°C° 0 mm 1 m/s 757 mmHg 41%
    20:00 +3°C° 0 mm 1 m/s 757 mmHg 41%
    21:00 +3°C° 0 mm 1 m/s 757 mmHg 42%
    22:00 +2°C° 0 mm 2 m/s 757 mmHg 43%
    23:00 +2°C° 0 mm 2 m/s 757 mmHg 44%

    24 Février, Dimanche

    Heure Température Précipitation Vent Pression Humidité
    00:00 +2°C° 0 mm 2 m/s 757 mmHg 44%
    01:00 +2°C° 0 mm 2 m/s 757 mmHg 45%
    02:00 +1°C° 0 mm 2 m/s 757 mmHg 46%
    03:00 +1°C° 0 mm 2 m/s 757 mmHg 48%
    04:00 +1°C° 0 mm 2 m/s 757 mmHg 49%
    05:00 -1°C° 0 mm 2 m/s 757 mmHg 50%
    06:00 -1°C° 0 mm 2 m/s 757 mmHg 50%
    07:00 -1°C° 0 mm 2 m/s 757 mmHg 50%
    08:00 0°C° 0 mm 3 m/s 757 mmHg 47%
    09:00 +1°C° 0 mm 3 m/s 758 mmHg 44%
    10:00 +2°C° 0 mm 3 m/s 758 mmHg 41%
    11:00 +3°C° 0 mm 3 m/s 758 mmHg 41%
    12:00 +4°C° 0 mm 3 m/s 758 mmHg 41%
    13:00 +4°C° 0 mm 3 m/s 758 mmHg 41%
    14:00 +5°C° 0 mm 3 m/s 757 mmHg 42%
    15:00 +5°C° 0 mm 3 m/s 757 mmHg 43%
    16:00 +5°C° 0 mm 3 m/s 757 mmHg 44%
    17:00 +4°C° 0 mm 3 m/s 757 mmHg 48%
    18:00 +4°C° 0 mm 2 m/s 758 mmHg 52%
    19:00 +3°C° 0 mm 2 m/s 758 mmHg 55%
    20:00 +2°C° 0 mm 2 m/s 758 mmHg 57%
    21:00 +2°C° 0 mm 2 m/s 758 mmHg 59%
    22:00 +1°C° 0 mm 2 m/s 758 mmHg 60%
    23:00 +1°C° 0 mm 2 m/s 758 mmHg 62%
    Voir plus